Fitchburg, MA

11:21 AM EDT on June 22, 2017 (GMT -0400)
Fitchburg Municipal

Weather History for KFIT - August, 2013

Change the Weather History Date:

Tuesday, August 13, 2013

  Actual Average (KORH) Record (KORH)
Temperature  
Mean Temperature 68 °F -  
Max Temperature 75 °F 77 °F 98 °F (1944)
Min Temperature 64 °F 59 °F 40 °F (1941)
Cooling Degree Days 4    
Growing Degree Days 18 (Base 50)    
Moisture  
Dew Point 64 °F    
Average Humidity 82    
Maximum Humidity 93    
Minimum Humidity 68    
Precipitation  
Precipitation 0.06 in - - ()
Sea Level Pressure  
Sea Level Pressure 29.80 in    
Wind  
Wind Speed 2 mph (SSE)    
Max Wind Speed 8 mph    
Max Gust Speed -    
Visibility 10 miles    
Events Rain    
Averages and records for this station are not official NWS values.
T = Trace of Precipitation, MM = Missing Value Source: NWS Daily Summary

Daily Weather History Graph

Daily Weather History Graph

Search for Another Location

Airport or City:

Trip Planner

Search our weather history database for the weather conditions in past years. The results will help you decide how hot, cold, wet, or windy it might be!

Date:

Astronomy

Aug. 13, 2013 Rise Set
Actual Time 5:51 AM EDT 7:51 PM EDT
Civil Twilight 5:21 AM EDT 8:21 PM EDT
Nautical Twilight 4:43 AM EDT 8:58 PM EDT
Astronomical Twilight 4:02 AM EDT 9:39 PM EDT
Moon 12:53 PM EDT (8/13) 11:13 PM EDT (8/13)
Length of Visible Light 15h 00m
Length of Day
13h 59m
Waxing Crescent, 41% of the Moon is Illuminated
Aug 13
Waxing Crescent
Aug 14
First Quarter
Aug 20
Full
Aug 28
Last Quarter
Sep 5
New

Hourly Weather History & Observations

Time (EDT) Temp. Dew Point Humidity Pressure Visibility Wind Dir Wind Speed Gust Speed Precip Events Conditions
12:52 AM 64.9 °F 61.0 °F 87% 29.94 in 10.0 mi Calm Calm - N/A   Mostly Cloudy
1:52 AM 66.9 °F 62.1 °F 84% 29.91 in 10.0 mi Calm Calm - N/A   Overcast
2:52 AM 66.9 °F 62.1 °F 84% 29.91 in 10.0 mi Calm Calm - N/A   Overcast
3:52 AM 66.0 °F 62.1 °F 87% 29.88 in 10.0 mi Calm Calm - N/A   Overcast
4:52 AM 64.9 °F 62.1 °F 90% 29.87 in 10.0 mi Calm Calm - N/A   Clear
5:52 AM 66.0 °F 61.0 °F 84% 29.86 in 10.0 mi Calm Calm - N/A   Clear
6:52 AM 66.9 °F 61.0 °F 81% 29.87 in 10.0 mi Calm Calm - N/A   Mostly Cloudy
7:52 AM 68.0 °F 63.0 °F 84% 29.85 in 10.0 mi Calm Calm - 0.00 in   Overcast
8:52 AM 69.1 °F 63.0 °F 81% 29.83 in 10.0 mi Calm Calm - N/A   Overcast
9:52 AM 70.0 °F 64.9 °F 84% 29.84 in 10.0 mi SSE 4.6 mph - 0.00 in Rain Light Rain
10:52 AM 70.0 °F 64.9 °F 84% 29.86 in 6.0 mi ESE 3.5 mph - 0.03 in Rain Light Rain
11:52 AM 70.0 °F 64.9 °F 84% 29.84 in 6.0 mi ESE 3.5 mph - 0.03 in Rain Light Rain
12:52 PM 71.1 °F 66.0 °F 84% 29.83 in 10.0 mi South 3.5 mph - 0.00 in   Overcast
1:52 PM 72.0 °F 66.9 °F 84% 29.80 in 10.0 mi SE 5.8 mph - N/A   Mostly Cloudy
2:15 PM 73.4 °F 64.4 °F 73% 29.78 in 10.0 mi South 8.1 mph - N/A   Mostly Cloudy
2:52 PM 73.0 °F 64.0 °F 73% 29.77 in 10.0 mi South 8.1 mph - N/A   Mostly Cloudy
3:38 PM 73.4 °F 64.4 °F 73% 29.76 in 10.0 mi SE 6.9 mph - N/A   Mostly Cloudy
3:52 PM 73.0 °F 64.9 °F 76% 29.75 in 10.0 mi SSE 4.6 mph - N/A   Overcast
4:10 PM 73.4 °F 64.4 °F 73% 29.75 in 10.0 mi SE 6.9 mph - N/A   Overcast
4:52 PM 73.9 °F 64.0 °F 71% 29.74 in 10.0 mi ESE 5.8 mph - N/A   Mostly Cloudy
5:52 PM 73.9 °F 63.0 °F 68% 29.72 in 10.0 mi South 6.9 mph - N/A   Overcast
6:52 PM 73.0 °F 64.0 °F 73% 29.72 in 10.0 mi SSE 4.6 mph - N/A   Mostly Cloudy
7:52 PM 72.0 °F 64.0 °F 76% 29.70 in 10.0 mi SSE 3.5 mph - N/A   Overcast
8:52 PM 68.0 °F 64.0 °F 87% 29.71 in 10.0 mi Calm Calm - N/A   Clear
9:52 PM 66.0 °F 64.0 °F 93% 29.73 in 9.0 mi Calm Calm - N/A   Clear
10:52 PM 66.9 °F 64.0 °F 90% 29.73 in 9.0 mi Calm Calm - N/A   Partly Cloudy
11:52 PM 66.0 °F 64.0 °F 93% 29.70 in 8.0 mi Calm Calm - 0.00 in   Mostly Cloudy